Terug naar catalogus

JILIN-1 SAR-01A

ActiefWetenschapSSO
NORAD 61240·PAYLOAD·🇨🇳 China
Deze satellietnaam is nog niet bevestigd door officiële bronnen.

Gelanceerd Sep 24, 2024 vanaf Jiuquan Satellite Launch Center

Loading…

Volgende Passages (komende 24 uur)

TLE

VersSource: Space-Track

Epoch: Sep 14, 2026, 23:30 UTC

1 61240U 24174C   26257.97926987  .00002740  00000-0  13362-3 0  9991
2 61240  97.4496 264.6778 0001589  88.9461 271.1956 15.19148071109315

Volg JILIN-1 SAR-01A in realtime met AllMySat

Download on the App Store